Temperature
15 15 16 16 13 11 13 13 13 13 13 13 13 13 13 12 13 13 12 13 13 13 13 13 13 13 13 13 13 14 14 14 14 14 14 14 14 14 14 14 14 14 14 14 14 14 14 14 14
15 15 15 15 12 12 12 12 12 13 13 13 13 12 12 11 12 12 12 12 13 13 13 13 13 13 13 13 13 13 13 13 13 13 13 13 13 14 14 14 14 14 14 14 14 14 14 14 14
14 15 15 11 11 12 13 12 12 12 13 13 12 11 11 11 11 12 12 12 12 12 12 12 13 13 13 13 13 13 13 13 13 13 13 13 13 13 13 13 13 13 13 13 13 13 14 14 14
14 15 14 10 12 12 12 12 12 11 12 12 11 10 10 10 11 11 12 12 12 12 12 12 12 12 13 13 13 13 13 13 13 13 13 13 13 13 13 13 13 13 13 13 13 13 13 13 13
14 14 11 10 11 11 11 11 12 12 11 11 11 10 10 10 11 11 11 11 11 12 12 12 12 12 12 12 12 12 12 12 13 13 13 13 13 13 13 13 13 13 13 13 13 13 13 13 13
14 11 10 10 11 11 11 12 12 11 11 11 11 9 10 10 11 11 11 11 11 11 11 12 12 12 12 12 12 12 12 12 12 12 12 12 12 13 13 13 13 12 12 13 13 12 12 12 12
12 9 10 10 10 11 11 11 11 10 10 10 11 9 9 10 10 10 10 11 11 11 11 11 11 11 11 11 11 12 12 12 12 12 12 12 12 12 12 12 12 12 12 12 12 12 12 12 12
13 9 10 9 10 11 11 11 11 10 10 10 11 9 9 10 10 10 10 10 10 11 11 11 11 11 11 11 11 11 11 11 11 12 12 12 12 12 12 12 12 12 12 12 12 12 12 12 12
12 9 9 9 10 11 10 10 10 10 10 9 9 9 10 10 10 10 10 10 10 10 10 10 10 10 11 11 11 11 11 11 11 11 11 11 11 11 11 11 11 11 11 11 11 11 11 11 11
11 9 9 10 10 10 9 9 9 9 8 8 8 9 9 9 10 10 10 10 10 10 10 10 10 10 10 10 10 10 10 10 10 11 11 11 11 11 11 11 11 11 11 11 11 11 11 11 11
9 8 9 9 9 10 9 9 9 9 7 7 8 9 9 9 9 9 9 9 9 9 9 9 9 10 10 10 10 10 10 10 10 10 10 10 10 10 10 10 10 10 10 10 10 10 10 10 10
8 8 8 9 9 9 9 8 7 7 7 8 9 9 9 9 9 9 9 9 9 9 9 9 9 9 9 9 9 9 10 10 10 10 10 10 10 10 10 10 10 10 10 10 10 10 10 10 9
7 7 8 8 8 8 8 7 6 6 7 8 8 8 8 8 8 8 8 8 8 8 8 8 9 8 9 9 9 9 9 9 9 9 9 9 9 9 9 9 9 9 9 9 9 9 9 9 9
7 7 7 8 8 8 7 6 6 6 7 7 7 7 7 7 7 7 8 8 8 8 8 8 8 8 8 8 8 8 8 8 8 8 9 9 9 9 9 9 9 9 9 9 9 9 8 8 8
7 7 7 7 7 7 7 6 5 6 6 6 6 6 6 6 6 7 7 7 7 7 7 7 7 8 8 8 8 8 8 7 8 8 8 8 8 8 8 8 8 8 8 8 8 8 8 8 8
7 7 7 7 6 6 7 7 5 5 5 5 5 5 5 5 6 6 6 6 6 7 7 7 7 7 7 7 7 7 7 7 7 7 7 7 7 7 7 8 8 8 8 8 8 8 8 7 7
6 6 6 6 5 5 6 5 4 4 4 4 4 4 4 4 5 5 5 6 6 6 6 6 6 7 7 7 7 7 7 6 6 6 6 6 6 7 7 7 7 7 7 7 7 7 7 7 7
6 6 6 6 5 5 4 4 3 3 3 3 3 3 3 3 4 4 5 5 5 5 6 6 6 6 6 6 6 6 6 6 6 6 6 6 6 6 6 6 6 6 6 6 6 6 6 6 6
5 5 5 5 4 4 4 3 3 3 2 1 1 2 2 3 3 4 4 4 5 5 5 5 5 5 5 5 5 6 6 6 6 6 6 6 6 6 5 5 5 6 6 6 6 6 6 6 6
5 5 4 4 4 4 3 2 2 2 1 1 1 1 2 2 3 3 3 4 4 4 4 4 4 4 4 4 5 5 5 5 5 5 5 5 5 5 5 5 5 5 5 5 5 5 5 5 5
5 4 4 4 3 3 3 3 2 1 1 0 0 1 1 2 2 3 3 3 3 4 4 4 4 4 4 4 4 4 4 4 4 4 5 4 5 5 4 4 4 4 4 4 4 4 4 4 4
4 4 4 3 3 2 3 3 3 1 0 -0 -0 -0 0 1 2 2 2 2 3 3 3 3 3 3 3 3 3 3 3 3 3 4 4 4 4 4 4 4 4 4 3 4 4 4 4 4 4
3 3 3 2 2 1 1 2 3 0 1 0 -1 -0 -0 0 1 1 2 2 2 2 2 2 2 2 2 2 2 2 3 3 3 3 3 3 3 3 3 3 3 3 3 3 3 3 3 3 3
2 2 2 1 1 2 1 1 3 1 1 0 -1 -1 -0 -0 0 1 1 1 1 1 2 2 1 2 2 1 2 2 2 2 2 2 2 2 2 2 2 2 2 2 2 2 2 2 2 2 2
2 2 2 2 1 2 -0 0 2 1 -1 -1 -1 -1 -1 -0 -0 0 0 1 1 1 1 1 1 1 1 1 1 1 1 1 1 1 1 1 1 2 2 1 1 1 1 2 2 1 2 2 2
1 2 3 3 2 1 -0 -0 1 -1 -2 -1 -1 -1 -1 -1 -1 -0 -0 0 0 0 0 0 0 0 0 0 0 0 -0 -0 0 0 0 0 1 1 1 1 1 1 1 1 1 1 1 1 1
1 1 1 0 -1 -0 -0 -1 -1 -1 -2 -3 -3 -2 -2 -1 -1 -1 -1 -0 -0 -0 -0 -0 -0 -0 -0 -0 -0 -1 -1 -1 -1 -1 -1 -0 -0 -0 -0 -0 -0 0 0 0 0 0 0 0 0
1 -0 -1 0 1 1 0 -1 1 0 -1 -2 -3 -3 -2 -2 -1 -1 -1 -1 -1 -1 -1 -1 -1 -1 -1 -1 -1 -1 -2 -2 -2 -2 -1 -1 -1 -1 -1 -1 -1 -1 -1 -1 -1 -0 -0 -0 -0
-0 -1 -1 -1 -0 0 0 1 -0 -1 -2 -3 -3 -3 -2 -2 -2 -2 -2 -2 -1 -1 -1 -1 -1 -1 -1 -2 -2 -2 -2 -2 -2 -2 -2 -2 -2 -2 -2 -1 -2 -1 -1 -1 -1 -1 -1 -1 -1
-1 -1 -1 0 -0 -2 -1 1 -2 -3 -3 -3 -3 -3 -2 -2 -2 -2 -2 -2 -2 -2 -2 -2 -2 -2 -2 -2 -2 -3 -3 -3 -3 -3 -3 -3 -3 -2 -2 -2 -2 -2 -2 -2 -2 -2 -2 -2 -2
Wind_Speed
7 5 3 4 5 4 2 3 2 1 1 1 1 3 6 5 4 3 1 2 3 3 3 3 7 9 10 11 11 12 12 12 13 13 14 14 14 14 15 15 15 15 15 16 16 16 16 16 16
3 3 5 5 4 2 4 3 3 2 3 2 3 3 4 3 2 2 2 3 4 4 4 6 9 10 11 11 11 11 11 12 12 13 13 13 14 14 14 14 14 14 15 15 15 15 15 15 15
2 4 4 4 4 6 4 3 4 0 2 2 3 3 2 2 1 1 1 2 5 5 6 6 10 11 11 12 12 11 11 11 11 12 12 12 12 13 13 13 14 14 14 14 14 14 14 14 14
3 4 4 3 4 4 3 2 2 2 2 3 3 3 2 3 1 1 2 4 5 6 6 6 10 10 11 11 11 11 11 11 11 11 11 11 11 12 12 13 13 13 13 13 13 13 13 13 13
4 4 3 1 3 2 2 1 2 2 2 2 3 3 1 2 3 4 4 5 5 6 7 7 9 10 10 11 10 11 11 11 11 11 11 11 11 11 11 12 12 12 12 12 12 12 12 12 12
4 4 3 4 3 2 1 1 1 2 2 2 3 3 1 2 4 4 4 5 6 6 8 8 9 9 10 10 10 10 10 11 11 11 11 11 11 11 11 11 11 11 11 11 11 12 12 12 12
5 4 4 4 3 2 2 1 2 2 2 1 2 4 1 1 2 4 5 6 7 8 8 8 9 8 8 9 10 10 10 10 11 11 11 11 10 11 11 11 10 10 11 11 11 11 11 11 11
4 5 3 3 4 4 1 1 1 2 2 2 2 4 2 1 2 5 5 6 6 7 8 8 8 9 9 9 9 10 10 10 11 11 11 11 10 10 10 10 10 10 10 10 10 10 10 10 11
4 3 4 5 5 3 1 2 2 2 4 2 2 1 1 5 5 6 5 5 5 5 6 7 7 7 8 8 8 9 9 10 10 10 10 10 10 10 9 10 10 10 9 10 10 10 10 10 10
4 4 5 3 2 2 1 2 1 3 3 2 2 3 5 6 6 6 5 4 3 3 4 5 6 6 7 7 8 8 8 9 9 9 9 9 9 9 9 9 10 10 10 10 10 10 10 10 9
3 4 2 0 1 1 2 2 2 3 1 2 3 4 5 6 5 4 4 3 2 2 3 4 4 5 6 6 7 7 8 8 9 8 8 9 9 8 9 8 8 9 9 9 9 9 9 8 8
3 1 1 1 1 2 2 2 1 1 2 1 2 5 6 6 5 4 3 2 2 3 2 3 4 4 5 6 6 6 6 6 7 7 7 7 7 7 7 7 7 7 7 7 7 7 7 8 7
2 0 1 1 3 2 3 1 1 1 1 3 6 6 5 5 3 2 2 2 3 2 2 2 3 4 4 5 5 6 6 5 6 7 7 7 6 5 5 5 6 6 6 6 6 6 6 6 6
2 1 1 2 1 1 2 1 1 2 2 4 6 4 3 3 2 2 2 1 2 1 1 1 2 3 4 4 5 5 5 5 5 6 6 6 6 5 4 4 5 5 5 5 5 5 4 4 5
2 2 2 2 1 0 2 3 2 2 4 4 3 3 2 2 3 3 2 1 1 1 1 1 2 3 4 4 4 5 5 5 5 5 6 6 5 5 4 4 3 4 5 5 5 5 5 4 4
3 2 1 2 1 1 2 6 2 2 4 3 2 2 2 2 2 2 3 3 1 2 2 2 2 3 4 4 4 4 5 5 4 4 5 5 5 5 4 4 3 3 4 4 4 3 2 2 2
2 1 3 3 1 1 2 6 2 0 3 3 3 2 2 1 1 2 2 2 2 2 2 3 3 3 3 3 4 4 5 5 4 4 4 4 4 4 4 3 3 3 3 3 2 2 1 1 1
3 3 3 4 2 0 3 6 5 2 3 3 3 3 2 2 2 0 1 2 2 2 3 3 3 3 3 3 3 3 4 4 4 4 4 4 4 4 3 3 3 3 3 2 1 1 1 1 1
3 3 3 3 2 1 5 8 7 3 2 3 4 4 4 4 2 0 1 2 2 3 3 3 3 3 3 2 1 1 1 1 2 3 4 4 3 3 3 2 3 2 1 1 1 1 1 1 1
2 2 3 3 3 1 4 7 6 3 3 4 5 5 5 3 1 1 1 1 2 2 2 2 2 1 2 2 1 0 1 1 1 3 4 4 3 3 2 2 2 2 1 1 1 1 1 0 1
2 4 4 3 4 2 3 7 4 2 2 2 2 3 4 5 5 3 1 1 1 1 1 1 0 1 2 2 2 2 2 2 1 2 2 4 4 3 3 2 1 2 1 0 1 1 2 2 1
4 2 2 2 1 3 1 5 6 3 4 4 4 4 4 4 4 3 2 1 0 1 1 1 1 1 2 2 2 2 1 0 1 1 1 3 3 3 3 2 1 1 0 0 1 1 1 2 2
3 1 2 1 2 2 1 3 8 1 5 6 5 4 4 4 4 4 3 3 1 0 1 1 1 2 2 2 2 2 1 1 1 2 2 2 3 3 4 3 2 1 1 1 1 1 1 2 2
3 3 3 3 2 4 5 5 7 4 5 4 3 3 3 3 3 2 2 2 1 1 1 1 1 1 1 1 1 1 1 1 2 2 2 2 2 3 4 4 2 2 2 2 1 2 2 2 2
3 4 2 3 2 6 2 4 9 5 3 3 4 3 2 2 2 2 1 1 1 1 0 1 1 1 0 1 0 0 0 0 1 1 2 2 2 2 3 4 3 2 2 2 2 2 2 2 3
4 5 5 4 5 5 2 7 7 3 2 2 2 1 1 1 2 1 1 1 1 1 0 1 1 1 1 1 0 0 0 0 1 1 1 2 2 2 3 3 3 4 3 3 2 2 3 2 3
4 3 3 4 1 3 6 7 8 2 2 1 1 0 1 2 1 1 1 0 0 1 1 1 2 1 1 1 0 0 1 1 2 2 1 2 2 2 3 3 3 4 3 3 2 2 3 2 3
2 5 4 4 3 5 6 6 5 5 4 1 2 2 2 1 0 1 1 1 1 1 1 1 1 1 1 0 0 1 1 1 1 1 2 2 3 2 2 3 3 3 3 3 2 2 2 2 3
4 3 4 3 4 5 5 7 4 5 4 4 4 3 3 2 1 0 1 1 2 2 1 1 1 1 1 0 0 1 1 1 1 1 2 2 3 3 3 3 3 4 3 3 3 3 3 3 3
4 6 7 5 5 5 4 8 1 2 3 3 3 2 1 2 1 1 0 1 2 2 2 1 1 1 1 1 1 1 1 2 2 2 3 3 3 3 3 3 3 4 4 3 3 3 3 3 4
Wind_Direction
354 13 54 56 61 61 211 237 222 185 143 13 70 108 128 127 139 155 46 44 42 38 33 77 99 102 98 95 93 92 91 90 89 88 87 85 84 84 83 82 80 78 79 78 77 75 75 75 74
358 33 57 64 105 167 249 230 212 209 174 109 59 70 88 88 54 78 35 17 50 51 57 73 93 100 98 96 93 91 91 91 92 90 88 86 83 82 82 82 80 78 78 78 77 76 75 74 74
43 51 86 91 142 185 210 219 209 326 110 92 72 48 85 102 65 84 359 52 63 57 62 79 90 92 97 96 93 91 91 92 94 92 89 88 86 84 82 80 79 78 78 77 76 75 75 74 74
74 53 62 96 198 214 216 221 167 114 57 69 110 84 61 30 5 67 64 78 76 59 63 84 91 90 92 96 94 93 91 93 93 92 91 89 87 85 82 80 79 79 78 76 75 74 74 75 75
59 84 87 140 227 248 256 235 161 123 106 77 118 123 82 13 56 87 84 79 79 63 59 78 92 93 92 91 95 95 91 89 89 90 90 89 87 86 84 81 78 78 79 78 75 75 75 75 75
63 76 121 206 230 264 276 234 142 101 110 99 117 120 141 45 68 80 83 80 76 73 64 69 81 90 92 91 89 91 91 90 86 85 86 87 87 87 85 83 80 79 78 78 76 75 76 75 76
111 113 166 188 202 246 271 85 133 136 115 164 143 128 155 54 62 81 82 77 72 68 64 61 66 72 84 90 89 87 89 88 85 83 83 84 86 87 85 83 81 78 76 75 74 75 76 77 77
121 116 145 187 195 231 273 73 72 125 151 58 101 140 185 190 98 87 81 71 68 62 57 54 59 63 66 75 84 83 84 86 83 80 81 81 83 85 85 82 80 78 76 75 74 74 76 78 78
92 101 187 203 199 219 106 83 18 32 92 64 38 49 67 115 109 101 87 66 61 55 48 51 54 58 64 70 73 76 77 78 79 79 83 82 80 80 78 80 81 79 77 76 75 74 75 75 75
96 169 207 202 197 180 132 104 110 81 67 52 43 47 90 110 120 125 127 125 99 66 42 48 54 57 66 73 74 70 69 68 70 75 78 80 80 79 79 80 80 77 74 74 73 72 73 71 69
121 176 179 110 25 119 117 73 62 120 148 227 192 154 129 121 124 137 145 147 136 107 60 48 57 60 69 74 75 70 66 64 64 69 77 82 80 75 70 69 68 69 68 67 67 65 66 69 69
114 93 140 94 52 93 129 121 76 94 222 354 140 141 138 139 150 161 162 148 113 94 71 59 62 70 69 79 79 76 71 66 64 64 72 80 75 68 67 66 65 67 68 69 68 66 65 65 65
121 121 48 64 66 79 78 73 154 274 350 64 98 113 135 150 160 146 123 118 104 98 74 66 72 79 78 81 78 74 69 67 68 69 65 73 76 68 69 65 66 69 71 74 71 71 69 64 58
144 110 33 2 38 65 107 328 79 255 96 92 103 117 134 146 134 82 74 86 107 115 95 75 84 76 79 79 78 77 72 69 68 67 62 69 78 74 70 67 64 63 68 76 80 84 82 73 67
97 72 10 357 48 75 97 318 236 186 127 115 119 128 122 89 68 72 68 61 113 102 80 82 96 77 83 82 80 81 78 76 69 65 64 64 73 79 74 68 63 60 66 76 79 74 73 67 63
74 83 285 299 66 351 149 260 278 149 144 156 161 144 122 91 61 45 39 30 50 84 75 68 83 79 78 81 82 85 83 79 70 67 64 55 59 76 79 65 53 62 70 71 75 67 72 57 55
49 219 246 288 8 84 187 248 271 182 164 193 198 184 165 123 28 26 35 36 60 81 81 71 69 75 80 77 79 79 79 72 64 63 61 54 52 62 77 64 49 62 74 70 71 68 87 84 47
221 226 243 250 290 261 240 252 271 250 206 214 216 213 204 210 242 323 35 22 58 78 69 64 62 53 65 77 73 67 61 55 51 49 46 48 49 51 66 66 46 61 65 52 57 110 76 108 113
158 188 251 262 325 283 250 262 269 248 221 228 232 226 220 224 226 114 46 26 77 72 72 69 64 48 57 65 85 78 35 29 44 38 38 40 42 50 61 57 50 47 68 61 67 111 128 92 81
147 224 260 299 350 309 291 280 269 233 221 225 225 231 228 219 219 196 96 58 87 92 81 75 64 61 57 49 55 97 117 84 64 37 34 32 35 41 52 53 50 44 45 36 70 88 141 134 118
215 208 230 260 329 350 327 293 265 263 239 261 250 238 225 208 209 208 181 165 110 100 92 94 57 75 61 59 67 62 58 38 27 18 18 14 15 22 34 33 54 53 58 253 248 190 169 186 202
239 213 186 181 359 291 4 285 275 258 275 259 251 237 230 219 207 200 189 181 196 198 119 85 77 65 66 79 79 84 89 34 310 317 334 358 4 14 16 18 30 77 82 303 296 249 226 182 194
194 109 127 148 168 298 262 237 280 301 270 263 253 240 234 220 203 203 195 187 185 162 110 107 73 62 59 78 97 99 84 28 357 5 359 354 360 1 10 15 14 0 296 263 309 284 234 208 199
129 76 62 65 87 268 229 202 275 236 236 259 251 246 237 217 200 198 195 164 143 96 83 92 89 60 54 74 89 112 117 24 15 358 353 350 346 357 1 1 3 352 330 294 275 259 220 218 228
102 102 20 341 311 253 201 214 252 248 235 234 244 242 233 199 185 184 195 189 181 141 108 104 107 68 48 100 104 88 144 211 274 307 317 327 335 337 341 352 347 336 317 308 312 291 242 220 225
187 156 170 215 238 278 258 238 255 260 272 276 268 234 218 193 184 196 217 212 211 204 185 154 182 236 227 198 231 347 21 297 297 301 296 292 288 292 326 328 331 333 328 310 292 298 270 242 234
150 187 158 139 179 271 263 279 296 268 290 296 264 191 217 203 199 226 290 281 254 251 229 207 209 231 240 224 182 349 355 333 314 317 322 306 310 329 330 326 328 326 324 315 310 292 283 268 249
139 142 116 149 202 255 278 269 256 267 260 249 218 233 242 219 216 316 320 326 314 286 267 235 215 238 247 229 262 327 319 334 342 341 322 311 316 326 322 321 321 318 319 317 307 303 308 287 276
145 150 159 163 185 197 261 266 231 228 229 222 229 226 215 208 207 254 331 344 354 359 350 357 337 336 4 9 3 3 343 353 348 324 314 316 323 321 313 308 307 306 307 315 301 300 311 287 285
185 182 166 185 225 207 226 267 286 244 254 219 224 222 201 183 175 201 308 358 4 356 351 342 345 354 341 2 18 358 359 355 338 320 319 325 321 322 314 306 297 295 296 299 292 289 298 279 277
Height
1501 1503 1505 1508 1512 1522 1523 1519 1517 1516 1516 1516 1516 1516 1517 1521 1525 1531 1527 1526 1528 1530 1532 1533 1535 1537 1538 1538 1539 1540 1540 1541 1542 1542 1543 1544 1544 1545 1545 1546 1546 1546 1547 1547 1547 1547 1548 1548 1548
1501 1504 1507 1508 1517 1527 1523 1517 1516 1514 1514 1515 1515 1516 1517 1520 1522 1524 1524 1526 1528 1530 1532 1533 1535 1537 1538 1539 1540 1540 1541 1542 1542 1543 1544 1544 1545 1546 1546 1547 1547 1547 1548 1548 1548 1548 1549 1549 1549
1502 1504 1507 1510 1519 1522 1518 1514 1514 1513 1514 1514 1516 1517 1519 1521 1522 1523 1524 1526 1528 1530 1532 1533 1535 1537 1538 1539 1540 1541 1541 1542 1543 1544 1544 1545 1546 1546 1547 1547 1547 1548 1548 1549 1549 1549 1550 1550 1550
1502 1505 1507 1514 1517 1516 1514 1512 1512 1513 1514 1514 1516 1518 1520 1522 1522 1523 1525 1526 1528 1530 1532 1533 1535 1536 1538 1539 1540 1541 1542 1542 1543 1544 1544 1545 1546 1546 1547 1547 1548 1548 1548 1549 1549 1550 1550 1551 1551
1502 1504 1511 1517 1515 1513 1512 1511 1511 1512 1514 1515 1516 1518 1520 1522 1522 1523 1525 1526 1528 1530 1532 1534 1535 1536 1537 1539 1540 1541 1541 1542 1543 1543 1544 1545 1545 1546 1547 1547 1548 1548 1549 1549 1550 1550 1551 1551 1551
1503 1504 1516 1518 1515 1512 1511 1511 1511 1512 1514 1515 1516 1518 1520 1521 1522 1523 1525 1526 1528 1530 1532 1533 1535 1536 1537 1538 1539 1540 1541 1542 1543 1543 1544 1544 1545 1546 1546 1547 1548 1548 1549 1549 1550 1550 1551 1551 1552
1503 1509 1514 1515 1515 1513 1511 1510 1511 1512 1514 1515 1516 1518 1519 1521 1522 1524 1525 1527 1528 1530 1532 1533 1534 1536 1537 1538 1539 1540 1541 1542 1542 1543 1543 1544 1545 1546 1546 1547 1548 1548 1548 1549 1549 1550 1551 1551 1552
1502 1508 1513 1516 1515 1512 1510 1510 1511 1512 1514 1515 1516 1517 1518 1520 1522 1523 1525 1527 1528 1530 1531 1533 1534 1535 1536 1537 1539 1539 1540 1541 1542 1542 1543 1544 1544 1545 1546 1546 1547 1547 1548 1548 1549 1550 1550 1551 1551
1502 1511 1515 1514 1513 1510 1510 1510 1511 1512 1513 1514 1515 1517 1518 1519 1521 1523 1525 1526 1528 1529 1530 1532 1533 1534 1535 1537 1538 1539 1540 1541 1541 1542 1542 1543 1544 1544 1545 1545 1546 1547 1547 1548 1548 1549 1550 1550 1551
1502 1511 1510 1509 1509 1509 1509 1510 1511 1512 1513 1514 1515 1516 1517 1518 1520 1521 1523 1524 1526 1528 1529 1530 1532 1534 1534 1535 1537 1538 1539 1539 1540 1541 1541 1542 1543 1544 1544 1545 1545 1546 1546 1547 1548 1548 1549 1550 1550
1503 1507 1507 1508 1507 1508 1509 1510 1511 1512 1514 1514 1514 1514 1516 1517 1519 1520 1522 1523 1525 1526 1528 1529 1531 1532 1533 1534 1535 1536 1537 1538 1539 1540 1540 1541 1542 1543 1543 1544 1544 1545 1546 1546 1547 1548 1548 1549 1549
1504 1506 1506 1507 1507 1508 1509 1510 1511 1511 1513 1513 1513 1514 1514 1515 1517 1519 1521 1522 1524 1525 1527 1528 1530 1531 1532 1533 1534 1535 1536 1536 1537 1538 1539 1540 1541 1541 1542 1543 1543 1544 1544 1545 1546 1546 1547 1548 1548
1505 1506 1506 1507 1507 1508 1508 1510 1511 1511 1512 1512 1512 1513 1513 1514 1516 1518 1520 1522 1523 1524 1525 1527 1528 1530 1531 1532 1533 1533 1534 1535 1536 1537 1538 1538 1539 1540 1541 1541 1542 1542 1543 1544 1544 1545 1546 1546 1548
1505 1506 1506 1507 1507 1508 1509 1510 1511 1510 1511 1511 1511 1512 1513 1514 1515 1516 1518 1519 1521 1522 1524 1525 1527 1528 1529 1530 1531 1532 1533 1534 1535 1535 1536 1537 1538 1538 1539 1540 1540 1541 1541 1542 1543 1543 1544 1545 1546
1504 1507 1507 1507 1507 1508 1509 1511 1510 1509 1510 1510 1510 1511 1512 1513 1514 1514 1516 1517 1519 1520 1522 1523 1525 1526 1528 1529 1530 1531 1531 1532 1533 1534 1534 1535 1536 1537 1538 1538 1539 1539 1540 1540 1541 1542 1542 1543 1544
1506 1508 1510 1508 1508 1508 1512 1511 1509 1508 1508 1508 1508 1509 1510 1511 1512 1513 1515 1516 1517 1519 1520 1521 1523 1524 1526 1527 1528 1529 1530 1530 1531 1532 1533 1533 1534 1535 1536 1536 1537 1537 1538 1538 1539 1540 1540 1541 1541
1510 1512 1511 1510 1509 1509 1510 1510 1508 1507 1507 1507 1507 1507 1508 1509 1510 1511 1513 1514 1515 1517 1518 1519 1521 1522 1524 1525 1526 1527 1528 1529 1529 1530 1531 1531 1532 1533 1533 1534 1534 1535 1536 1536 1537 1537 1538 1538 1539
1510 1512 1511 1510 1509 1509 1510 1509 1507 1507 1506 1506 1506 1506 1506 1507 1508 1510 1511 1512 1513 1515 1516 1517 1519 1520 1521 1522 1524 1525 1526 1527 1527 1528 1529 1529 1530 1531 1531 1532 1532 1533 1533 1534 1534 1535 1536 1536 1537
1509 1511 1512 1511 1510 1510 1509 1508 1505 1504 1505 1504 1504 1504 1504 1505 1507 1508 1509 1510 1511 1512 1514 1515 1516 1517 1519 1519 1520 1521 1522 1524 1525 1526 1526 1527 1527 1528 1528 1529 1529 1530 1530 1531 1531 1532 1533 1533 1534
1509 1511 1513 1512 1511 1511 1511 1507 1502 1501 1501 1500 1500 1500 1501 1502 1504 1505 1506 1507 1507 1509 1511 1513 1514 1515 1516 1517 1518 1519 1520 1521 1522 1523 1523 1524 1524 1525 1525 1525 1526 1526 1527 1528 1528 1529 1529 1530 1531
1509 1511 1513 1514 1513 1512 1513 1505 1501 1499 1498 1498 1497 1497 1498 1499 1500 1502 1504 1505 1506 1507 1509 1510 1511 1513 1514 1514 1515 1516 1517 1518 1519 1519 1520 1521 1521 1521 1522 1522 1523 1523 1524 1524 1525 1525 1526 1527 1528
1509 1510 1511 1513 1515 1517 1516 1511 1499 1498 1497 1495 1495 1495 1495 1496 1498 1499 1501 1502 1503 1505 1507 1508 1509 1510 1511 1512 1512 1513 1513 1514 1515 1516 1517 1517 1518 1518 1519 1519 1519 1520 1521 1521 1522 1522 1522 1523 1524
1508 1510 1512 1514 1517 1521 1519 1518 1500 1499 1496 1493 1492 1492 1492 1494 1495 1497 1499 1500 1502 1503 1504 1505 1507 1508 1508 1509 1510 1510 1511 1511 1512 1513 1513 1514 1514 1515 1515 1515 1516 1516 1517 1517 1518 1518 1519 1519 1520
1508 1511 1514 1518 1520 1520 1518 1518 1500 1497 1492 1489 1490 1490 1490 1492 1493 1495 1497 1498 1500 1501 1502 1502 1503 1504 1505 1506 1507 1507 1508 1508 1509 1509 1510 1510 1511 1511 1511 1512 1512 1512 1513 1513 1513 1514 1514 1515 1516
1509 1513 1519 1519 1522 1517 1518 1516 1499 1490 1489 1488 1488 1488 1489 1490 1491 1492 1494 1496 1497 1498 1499 1500 1500 1501 1502 1503 1503 1504 1504 1505 1505 1506 1506 1506 1506 1507 1507 1508 1508 1508 1509 1509 1509 1510 1510 1510 1511
1509 1510 1516 1518 1520 1518 1518 1513 1493 1489 1487 1487 1487 1487 1488 1489 1490 1491 1492 1493 1495 1496 1496 1497 1497 1498 1499 1499 1500 1501 1501 1502 1502 1502 1502 1503 1503 1503 1503 1504 1504 1504 1504 1504 1505 1505 1505 1505 1505
1509 1512 1512 1520 1527 1526 1514 1506 1493 1486 1486 1486 1486 1486 1486 1487 1489 1490 1491 1492 1493 1494 1494 1495 1495 1495 1496 1496 1497 1498 1498 1499 1499 1499 1499 1499 1499 1499 1500 1500 1500 1500 1500 1500 1500 1500 1500 1500 1501
1507 1511 1517 1518 1517 1515 1510 1508 1494 1485 1484 1485 1486 1485 1485 1486 1487 1488 1489 1490 1491 1491 1492 1492 1492 1492 1493 1493 1494 1494 1495 1495 1496 1496 1496 1496 1496 1496 1496 1495 1495 1496 1496 1496 1496 1496 1496 1496 1496
1509 1512 1513 1516 1517 1516 1512 1496 1485 1483 1482 1483 1484 1484 1485 1485 1486 1487 1487 1488 1488 1488 1489 1489 1489 1490 1490 1490 1491 1491 1491 1492 1492 1492 1492 1492 1492 1491 1491 1491 1491 1491 1491 1491 1491 1491 1491 1491 1492
1504 1506 1509 1509 1512 1517 1513 1495 1483 1483 1481 1481 1482 1483 1483 1484 1485 1486 1486 1486 1486 1486 1486 1486 1486 1486 1487 1487 1487 1488 1488 1488 1488 1488 1488 1488 1488 1487 1487 1486 1486 1487 1487 1487 1486 1486 1486 1486 1486